C/2019 T4 ( ATLAS )

Japanese version
Home page
Updated on November 9, 2019

---------------------------------------------------------------------

* Profile

Discovery Date October 9, 2019
Magnitude 19.3 mag
Discoverer Asteroid Terrestrial-Impact Last Alert System (ATLAS) search program

* Orbital Elements

Epoch 2022 May 21.0 TT = JDT 2459720.5
T 2022 June  9.23466 TT                                 Williams
q   4.2438489            (2000.0)            P               Q
z  +0.0009927      Peri.  351.18615     -0.95994210     +0.05580221
 +/-0.0000439      Node   199.93900     -0.18173934     -0.86987285
e   0.9957870      Incl.   53.62865     -0.21326503     +0.49010952
From 24 observations 2019 Feb. 5-Nov. 4, mean residual 0".3.

* Finding Charts

* Magnitudes Graph

        m1 = -9.0 + 5 log d + 25   log r  [    ,-975]  (             - 2019 Oct.  8)
        m1 =  5.0 + 5 log d + 10.0 log r  [-975,    ]  (2019 Oct.  8 -             )

---------------------------------------------------------------------

The orbital elements are published on M.P.E.C. 2019-V116.
The charts are made with StellaNavigator Ver.10 (AstroArts).
The magnitudes graphs are made with Comet for Windows.

---------------------------------------------------------------------

Copyright(C) Seiichi Yoshida (comet@aerith.net). All rights reserved.